{"data":{"norad_id":53489,"intl_designator":"2022-099AA","name":"STARLINK-4392","alt_names":[],"object_type":"PAYLOAD","status":"ACTIVE","operator":null,"country":"US","launch_date":"2022-08-12","launch_site_code":"AFWTR","launch_vehicle":null,"mission":null,"orbit_class":"UNKNOWN","rcs_meters":null,"size_class":null,"mass_kg":null,"dimensions":null,"purposes":["comms"],"wikipedia_slug":null,"has_3d_model":false,"image_url":null,"decayed_at":null,"tle_current":{"epoch":"2026-05-25T01:09:16.272864Z","epoch_age_seconds":61045,"freshness":"FRESH","line1":"1 53489U 22099AA  26145.04810501  .00001931  00000+0  13777-3 0  9999","line2":"2 53489  97.4523 264.9611 0001440 207.4641 152.6511 15.05665928207460","mean_motion":15.05665928,"eccentricity":0.000144,"inclination_deg":97.4523,"raan_deg":264.9611,"arg_perigee_deg":207.4641,"mean_anomaly_deg":152.6511,"bstar":0.00013777,"rev_number":20746,"period_min":95.638745170569,"perigee_km":548.46472261019,"apogee_km":550.4598712077,"semimajor_km":6927.5992969089,"source":"CELESTRAK","updated_at":"2026-05-25T13:38:17.434663Z"}}}